Fulton, NY

5:44 PM EDT on May 29, 2017 (GMT -0400)
Oswego County

Weather History for KFZY - February, 2013

Change the Weather History Date:

Tuesday, February 5, 2013

  Actual Average (KSYR) Record (KSYR)
Temperature  
Mean Temperature 27 °F -  
Max Temperature 42 °F 27 °F 55 °F (1962)
Min Temperature 12 °F 12 °F -19 °F (1918)
Degree Days  
Heating Degree Days 38    
Moisture  
Dew Point 8 °F    
Average Humidity 61    
Maximum Humidity 77    
Minimum Humidity 21    
Precipitation  
Precipitation 0.00 in - - ()
Sea Level Pressure  
Sea Level Pressure 29.93 in    
Wind  
Wind Speed 2 mph (East)    
Max Wind Speed 6 mph    
Max Gust Speed -    
Visibility 9 miles    
Events Snow    
Averages and records for this station are not official NWS values.
T = Trace of Precipitation, MM = Missing Value Source: NWS Daily Summary

Daily Weather History Graph

Daily Weather History Graph

Search for Another Location

Airport or City:

Trip Planner

Search our weather history database for the weather conditions in past years. The results will help you decide how hot, cold, wet, or windy it might be!

Date:

Astronomy

Feb. 05, 2013 Rise Set
Actual Time 7:16 AM EST 5:23 PM EST
Civil Twilight 6:46 AM EST 5:53 PM EST
Nautical Twilight 6:12 AM EST 6:27 PM EST
Astronomical Twilight 5:39 AM EST 7:00 PM EST
Moon 2:59 AM EST (2/5) 12:35 PM EST (2/5)
Length of Visible Light 11h 06m
Length of Day
10h 06m
Waning Crescent, 27% of the Moon is Illuminated
Feb 5
Waning Crescent
Feb 10
New
Feb 17
First Quarter
Feb 25
Full
Mar 4
Last Quarter

Hourly Weather History & Observations

Time (EST) Temp. Windchill Dew Point Humidity Pressure Visibility Wind Dir Wind Speed Gust Speed Precip Events Conditions
12:54 AM 18.0 °F 12.7 °F 10.9 °F 74% 29.95 in 8.0 mi NNW 3.5 mph - 0.00 in   Overcast
1:54 AM 17.1 °F - 9.0 °F 71% 29.95 in 10.0 mi Calm Calm - N/A   Overcast
2:54 AM 14.0 °F - 7.0 °F 74% 29.96 in 10.0 mi Calm Calm - N/A   Overcast
3:24 AM 17.6 °F 12.3 °F 6.8 °F 63% 29.94 in 5.0 mi East 3.5 mph - 0.00 in Snow Light Snow
3:54 AM 21.0 °F 16.2 °F 7.0 °F 55% 29.96 in 4.0 mi East 3.5 mph - 0.00 in Snow Light Snow
4:25 AM 19.4 °F - 6.8 °F 58% 29.94 in 7.0 mi Calm Calm - 0.00 in   Overcast
4:54 AM 15.1 °F - 6.1 °F 68% 29.96 in 10.0 mi Calm Calm - 0.00 in   Overcast
5:54 AM 12.0 °F - 3.9 °F 70% 29.97 in 10.0 mi Calm Calm - N/A   Overcast
7:54 AM 12.0 °F 5.9 °F 1.9 °F 64% 30.00 in 10.0 mi ESE 3.5 mph - N/A   Mostly Cloudy
8:54 AM 19.9 °F - 3.0 °F 48% 30.01 in 10.0 mi Calm Calm - N/A   Mostly Cloudy
9:54 AM 39.0 °F 35.7 °F 1.9 °F 21% 30.00 in 10.0 mi ESE 4.6 mph - N/A   Clear
10:54 AM 42.1 °F 38.4 °F 3.9 °F 21% 29.99 in 10.0 mi East 5.8 mph - N/A   Clear
11:54 AM 19.0 °F 12.3 °F 6.1 °F 57% 29.98 in 10.0 mi ESE 4.6 mph - N/A   Partly Cloudy
12:54 PM 19.9 °F 13.4 °F 8.1 °F 60% 29.95 in 10.0 mi Variable 4.6 mph - N/A   Mostly Cloudy
1:54 PM 21.0 °F 14.6 °F 8.1 °F 57% 29.92 in 10.0 mi East 4.6 mph - N/A   Scattered Clouds
2:54 PM 21.9 °F 17.2 °F 9.0 °F 58% 29.91 in 10.0 mi ESE 3.5 mph - N/A   Clear
3:54 PM 21.0 °F 16.2 °F 10.0 °F 63% 29.89 in 10.0 mi SSE 3.5 mph - N/A   Mostly Cloudy
4:54 PM 21.0 °F - 9.0 °F 60% 29.88 in 10.0 mi Calm Calm - N/A   Partly Cloudy
5:54 PM 19.9 °F - 10.0 °F 65% 29.88 in 10.0 mi Calm Calm - N/A   Overcast
6:54 PM 19.9 °F 13.4 °F 9.0 °F 62% 29.88 in 10.0 mi ESE 4.6 mph - N/A   Overcast
7:54 PM 19.9 °F - 10.0 °F 65% 29.89 in 10.0 mi Calm Calm - N/A   Overcast
8:54 PM 18.0 °F - 10.0 °F 71% 29.89 in 10.0 mi Calm Calm - N/A   Overcast
9:54 PM 17.1 °F - 10.0 °F 74% 29.89 in 10.0 mi Calm Calm - N/A   Overcast
10:54 PM 17.1 °F - 10.0 °F 74% 29.88 in 10.0 mi Calm Calm - N/A   Mostly Cloudy
11:54 PM 17.1 °F - 10.9 °F 77% 29.88 in 10.0 mi Calm Calm - N/A   Overcast